Hourly Weather Barnowiec

Today, 24 November, Tuesday

Time Temperature Precipitation Wind Pressure Humidity
00:00 +1°C° 0 mm 2 mps 716 mmHg 92%
01:00 +1°C° 0 mm 2 mps 716 mmHg 95%
02:00 -1°C° 0 mm 2 mps 716 mmHg 94%
03:00 -1°C° 0 mm 2 mps 716 mmHg 93%
04:00 +1°C° 0 mm 1 mps 716 mmHg 92%
05:00 +1°C° 0 mm 1 mps 716 mmHg 91%
06:00 0°C° 0 mm 1 mps 716 mmHg 91%
07:00 0°C° 0 mm 1 mps 716 mmHg 90%
08:00 +1°C° 0 mm 1 mps 716 mmHg 83%
09:00 +2°C° 0 mm 1 mps 717 mmHg 76%
10:00 +4°C° 0 mm 1 mps 717 mmHg 70%
11:00 +5°C° 0 mm 1 mps 717 mmHg 66%
12:00 +5°C° 0 mm 1 mps 716 mmHg 63%
13:00 +6°C° 0 mm 1 mps 716 mmHg 60%
14:00 +4°C° 0 mm 1 mps 716 mmHg 66%
15:00 +3°C° 0 mm 1 mps 715 mmHg 73%
16:00 +1°C° 0 mm 1 mps 715 mmHg 79%
17:00 +1°C° 0 mm 1 mps 715 mmHg 80%
18:00 +1°C° 0 mm 1 mps 715 mmHg 81%
19:00 0°C° 0 mm 1 mps 715 mmHg 82%
20:00 0°C° 0 mm 1 mps 715 mmHg 82%
21:00 0°C° 0 mm 1 mps 714 mmHg 81%
22:00 -2°C° 0 mm 2 mps 714 mmHg 81%
23:00 -3°C° 0 mm 2 mps 714 mmHg 81%

Tomorrow, 25 November, Wednesday

Time Temperature Precipitation Wind Pressure Humidity
00:00 -3°C° 0 mm 2 mps 714 mmHg 80%
01:00 -3°C° 0 mm 2 mps 714 mmHg 80%
02:00 -3°C° 0 mm 2 mps 714 mmHg 79%
03:00 -3°C° 0 mm 2 mps 714 mmHg 79%
04:00 -3°C° 0 mm 2 mps 713 mmHg 78%
05:00 -3°C° 0 mm 2 mps 713 mmHg 78%
06:00 -3°C° 0 mm 2 mps 713 mmHg 78%
07:00 -3°C° 0 mm 2 mps 713 mmHg 78%
08:00 -2°C° 0 mm 2 mps 713 mmHg 73%
09:00 +1°C° 0 mm 2 mps 713 mmHg 67%
10:00 +2°C° 0 mm 2 mps 713 mmHg 61%
11:00 +3°C° 0 mm 2 mps 713 mmHg 60%
12:00 +3°C° 0 mm 2 mps 713 mmHg 58%
13:00 +4°C° 0 mm 2 mps 713 mmHg 56%
14:00 +3°C° 0 mm 2 mps 713 mmHg 64%
15:00 +1°C° 0 mm 2 mps 712 mmHg 71%
16:00 -1°C° 0 mm 2 mps 712 mmHg 79%
17:00 -2°C° 0 mm 2 mps 712 mmHg 79%
18:00 -2°C° 0 mm 2 mps 712 mmHg 79%
19:00 -2°C° 0 mm 2 mps 712 mmHg 79%
20:00 -3°C° 0 mm 2 mps 712 mmHg 77%
21:00 -3°C° 0 mm 2 mps 712 mmHg 76%
22:00 -3°C° 0 mm 2 mps 712 mmHg 74%
23:00 -3°C° 0 mm 2 mps 712 mmHg 73%

Day after tomorrow, 26 November, Thursday

Time Temperature Precipitation Wind Pressure Humidity
00:00 -3°C° 0 mm 2 mps 712 mmHg 73%
01:00 -3°C° 0 mm 2 mps 712 mmHg 72%
02:00 -3°C° 0 mm 2 mps 712 mmHg 72%
03:00 -3°C° 0 mm 2 mps 711 mmHg 73%
04:00 -3°C° 0 mm 2 mps 711 mmHg 74%
05:00 -3°C° 0 mm 2 mps 711 mmHg 74%
06:00 -3°C° 0 mm 2 mps 711 mmHg 74%
07:00 -3°C° 0 mm 2 mps 711 mmHg 75%
08:00 +1°C° 0 mm 1 mps 712 mmHg 70%
09:00 +2°C° 0 mm 1 mps 712 mmHg 64%
10:00 +3°C° 0 mm 1 mps 712 mmHg 59%
11:00 +4°C° 0 mm 1 mps 712 mmHg 58%
12:00 +5°C° 0 mm 1 mps 711 mmHg 57%
13:00 +6°C° 0 mm 1 mps 711 mmHg 57%
14:00 +4°C° 0 mm 1 mps 711 mmHg 65%
15:00 +3°C° 0 mm 1 mps 710 mmHg 74%
16:00 +1°C° 0 mm 1 mps 710 mmHg 82%
17:00 0°C° 0 mm 1 mps 710 mmHg 83%
18:00 0°C° 0 mm 1 mps 710 mmHg 85%
19:00 0°C° 0 mm 1 mps 710 mmHg 86%
20:00 0°C° 0 mm 1 mps 710 mmHg 86%
21:00 0°C° 0 mm 1 mps 710 mmHg 86%
22:00 0°C° 0 mm 1 mps 710 mmHg 85%
23:00 0°C° 0 mm 1 mps 710 mmHg 85%

27 November, Friday

Time Temperature Precipitation Wind Pressure Humidity
00:00 0°C° 0 mm 1 mps 710 mmHg 84%
01:00 0°C° 0 mm 1 mps 710 mmHg 84%
02:00 0°C° 0 mm 1 mps 709 mmHg 84%
03:00 0°C° 0 mm 1 mps 709 mmHg 84%
04:00 0°C° 0 mm 1 mps 709 mmHg 83%
05:00 0°C° 0 mm 1 mps 709 mmHg 83%
06:00 0°C° 0 mm 1 mps 709 mmHg 82%
07:00 0°C° 0 mm 1 mps 709 mmHg 82%
08:00 +1°C° 0 mm 1 mps 709 mmHg 77%
09:00 +2°C° 0 mm 1 mps 710 mmHg 73%
10:00 +3°C° 0 mm 1 mps 710 mmHg 69%
11:00 +4°C° 0 mm 1 mps 710 mmHg 67%
12:00 +5°C° 0 mm 1 mps 710 mmHg 65%
13:00 +6°C° 0 mm 1 mps 710 mmHg 63%
14:00 +4°C° 0 mm 1 mps 709 mmHg 70%
15:00 +1°C° 0 mm 0 mps 709 mmHg 77%
16:00 0°C° 0 mm 0 mps 709 mmHg 85%
17:00 0°C° 0 mm 0 mps 709 mmHg 85%
18:00 -1°C° 0 mm 0 mps 709 mmHg 86%
19:00 -1°C° 0 mm 0 mps 709 mmHg 86%
20:00 -1°C° 0 mm 0 mps 709 mmHg 86%
21:00 -1°C° 0 mm 0 mps 709 mmHg 85%
22:00 -1°C° 0 mm 0 mps 710 mmHg 84%
23:00 -1°C° 0 mm 0 mps 710 mmHg 84%

28 November, Saturday

Time Temperature Precipitation Wind Pressure Humidity
00:00 -1°C° 0 mm 0 mps 709 mmHg 84%
01:00 -1°C° 0 mm 0 mps 709 mmHg 85%
02:00 -1°C° 0 mm 0 mps 709 mmHg 86%
03:00 -1°C° 0 mm 0 mps 709 mmHg 87%
04:00 -1°C° 0 mm 0 mps 709 mmHg 88%
05:00 -1°C° 0 mm 0 mps 710 mmHg 88%
06:00 -1°C° 0 mm 0 mps 710 mmHg 88%
07:00 0°C° 0 mm 0 mps 710 mmHg 88%
08:00 0°C° 0.1 mm 0 mps 710 mmHg 90%
09:00 0°C° 0.1 mm 0 mps 710 mmHg 93%
10:00 +2°C° 0.1 mm 1 mps 711 mmHg 95%
11:00 +2°C° 0.1 mm 1 mps 711 mmHg 95%
12:00 +2°C° 0.1 mm 1 mps 710 mmHg 95%
13:00 +2°C° 0.1 mm 1 mps 710 mmHg 95%
14:00 +2°C° 0 mm 1 mps 710 mmHg 94%
15:00 +1°C° 0 mm 1 mps 710 mmHg 94%
16:00 +1°C° 0 mm 1 mps 710 mmHg 94%
17:00 +1°C° 0 mm 1 mps 711 mmHg 91%
18:00 +1°C° 0 mm 1 mps 711 mmHg 89%
19:00 +1°C° 0 mm 1 mps 711 mmHg 86%
20:00 0°C° 0 mm 1 mps 711 mmHg 87%
21:00 0°C° 0 mm 1 mps 711 mmHg 87%
22:00 0°C° 0 mm 1 mps 711 mmHg 87%
23:00 0°C° 0 mm 1 mps 711 mmHg 88%

29 November, Sunday

Time Temperature Precipitation Wind Pressure Humidity
00:00 -1°C° 0 mm 1 mps 711 mmHg 89%
01:00 -1°C° 0 mm 1 mps 711 mmHg 90%
02:00 -1°C° 0 mm 1 mps 711 mmHg 91%
03:00 -2°C° 0 mm 1 mps 711 mmHg 93%
04:00 -2°C° 0 mm 1 mps 711 mmHg 94%
05:00 -2°C° 0 mm 1 mps 711 mmHg 92%
06:00 -2°C° 0 mm 1 mps 711 mmHg 91%
07:00 -3°C° 0 mm 2 mps 711 mmHg 89%
08:00 -3°C° 0 mm 2 mps 711 mmHg 86%
09:00 -3°C° 0 mm 2 mps 711 mmHg 82%
10:00 -3°C° 0 mm 2 mps 711 mmHg 79%
11:00 -3°C° 0 mm 2 mps 711 mmHg 78%
12:00 -3°C° 0 mm 2 mps 711 mmHg 77%
13:00 -3°C° 0 mm 2 mps 710 mmHg 76%
14:00 -3°C° 0 mm 2 mps 710 mmHg 77%
15:00 -4°C° 0 mm 2 mps 710 mmHg 78%
16:00 -4°C° 0 mm 2 mps 710 mmHg 79%
17:00 -4°C° 0 mm 2 mps 710 mmHg 82%
18:00 -4°C° 0 mm 2 mps 710 mmHg 84%
19:00 -4°C° 0 mm 2 mps 710 mmHg 86%
20:00 -5°C° 0 mm 2 mps 710 mmHg 86%
21:00 -3°C° 0 mm 1 mps 710 mmHg 85%
22:00 -3°C° 0 mm 1 mps 710 mmHg 85%
23:00 -3°C° 0.1 mm 1 mps 710 mmHg 86%
Show more

We Need Your Consent

Meteoprog and our Service Providers may store and access personal data such as cookies, device identifiers or other similar technologies on your device and process such data to personalise content and ads, as well as provide social media features and to analyse the traffic.

  • Store and/or access information on your device

    Cookies, device identifiers or other information can be stored or accessed on your device for the purposes indicated above.

  • Personalised ads and content, ad and content measurement, audience insights, and products development

    Ads and content can be personalised based on a profile. More data can be added to better personalise ads and content. Ad and content performance can be measured. Insights about the audience who saw the ads and content can be derived. Such data can be used to develop or improve user’s experience, systems and software.

By clicking ‘I Agree’ you will allow the use of indicated cookies, device identifiers, web beacons or other similar technologies. Your settings can be changed in the browser on your device.

For certain purposes, legitimate interests may be relied on, rather than consent. You can read more about this in our Privacy and Cookie Policy.